User: anonymous   Login
Location: Fort Worth, Tx
(32.7431°N, 97.3695°W)
Time: 05:25:16
(UTC-05:00)
Language:

Tiros 1 despin weight - Orbit

View from above orbital plane
View from above orbital plane
View from above satellite
View from above satellite

Ground track
Ground track

The orbit data is extracted from the following two-line orbital elements,

1   115U 60002D   24053.88312153  .00003571  00000-0  40208-3 0  9993
2   115  48.1620 271.7254 0031188  71.9684 288.4625 14.88418052412917
Epoch (UTC): 22 February 2024 21:11:41
Eccentricity: 0.0031188
inclination: 48.1620°
perigee height: 581 km
apogee height: 624 km
right ascension of ascending node: 271.7254°
argument of perigee: 71.9684°
revolutions per day: 14.88418052
mean anomaly at epoch: 288.4625°
orbit number at epoch: 41291

The dashed part of the orbit path shows where the satellite is in the earth's shadow,  

DLR